Nur fliegen ist schöner ....

Willkommen beim Flugservice Bautzen GmbH

Wir sind eine nach europäischen Richtlinien zugelassene Flugschule und lizenziertes Luftfahrtunternehmen. Bei uns können sie nicht nur Rundflüge über die Oberlausitz oder Sachsen buchen, sondern in unserer Flugschule selber das Fliegen erlernen. Erfahrene Fluglehrer stehen Ihnen dabei zur Seite.

Wir bieten Ihnen außerdem spezielle Flüge zur Vermessung oder Fotoflüge für Luftbildaufnahmen an. In Zusammenarbeit mit dem Fallschirmsportclub Dresden und dem Cottbuser Fallschirmsportclub setzen wir am Flugplatz Bautzen und Neuhausen Fallschirmspringer ab.
Schauen Sie sich in Ruhe bei uns um und wenn Sie Fragen haben oder weitere Informationen benötigen, scheuen Sie sich nicht Kontakt mit uns aufzunehmen.

Gutscheine für Rundflüge und Tandemsprünge können Sie ganz leicht auch online in unserem Shop erwerben.

Terminkalender

Letzter Monat September 2021 Nächster Monat
Mo Di Mi Do Fr Sa So
week 35 1 2 3 4 5
week 36 6 7 8 9 10 11 12
week 37 13 14 15 16 17 18 19
week 38 20 21 22 23 24 25 26
week 39 27 28 29 30

Flugwetterinfo

[Quelle: ADDS]
METAR
EDDC 290120Z 05004KT 9000 BKN009 BKN026 13/13 Q1020 =
EDDC 282300Z 2900/2924 09004KT 9999 SCT030 TEMPO 2900/2906 BKN012 PROB30 TEMPO 2900/2906 3500 BR BKN008 BECMG 2905/2907 15009KT TEMPO 2909/2914 4000 RA BKN012 BECMG 2912/2914 21006KT
TAF
EDDC 282300Z 2900/2924 09004KT 9999 SCT030 TEMPO 2900/2906 BKN012 PROB30 TEMPO 2900/2906 3500 BR BKN008 BECMG 2905/2907 15009KT TEMPO 2909/2914 4000 RA BKN012 BECMG 2912/2914 21006KT =
SR / SS: 04:59 / 16:44 UTC (EDAB Flugplatz Bautzen 2021-09-29)

Öffnungszeiten

des Flugplatzes Bautzen erfahren Sie hier:

flugplatz bautzen logo
Flugservice Bautzen GmbH, Kornmarkt 34, 02625 Bautzen  Telefon: +49 (3591) 211105, Telefax: +49 (3591) 274512, E-Mail:  flugservice(at)fsbautzen.de